Location: Fort Wayne
(41.1310°N, 85.1290°W)
Time: 13:56:09
(UTC-04:00)

SR - Visible Passes

Search period start: 26 July 2016 00:00
Search period end: 05 August 2016 00:00
Orbit: 584 x 874 km, 66.7° (Epoch: 25 July)

Date Brightness Start Highest point End Pass type
(mag) Time Alt. Az. Time Alt. Az. Time Alt. Az.
26 Jul ? 02:02:48 44° NE 02:02:48 44° NE 02:05:53 10° NNE visible
26 Jul ? 03:42:13 12° WNW 03:43:52 14° NW 03:46:15 10° NNW visible
27 Jul ? 01:14:34 22° ENE 01:14:34 22° ENE 01:16:23 10° NE visible
27 Jul ? 02:53:59 25° NW 02:54:13 25° NW 02:57:58 10° N visible
28 Jul ? 02:05:43 41° NNW 02:05:43 41° NNW 02:09:08 10° NNE visible
29 Jul ? 01:17:23 35° NE 01:17:23 35° NE 01:19:59 10° NNE visible
29 Jul ? 02:56:47 13° WNW 02:57:58 14° NW 03:00:25 10° N visible
30 Jul ? 00:29:01 19° ENE 00:29:01 19° ENE 00:30:26 10° NE visible
30 Jul ? 02:08:25 26° NW 02:08:25 26° NW 02:12:06 10° N visible
31 Jul ? 01:19:59 40° NNW 01:19:59 40° NNW 01:23:14 10° NNE visible
01 Aug ? 00:31:29 34° NE 00:31:29 34° NE 00:34:03 10° NNE visible
01 Aug ? 02:10:53 14° WNW 02:12:02 15° NW 02:14:34 10° N visible
01 Aug ? 23:42:54 20° ENE 23:42:54 20° ENE 23:44:29 10° NE visible
02 Aug ? 01:22:17 27° NW 01:22:24 27° NW 01:26:13 10° N visible
03 Aug ? 00:33:35 48° NNW 00:33:35 48° NNW 00:37:20 10° NNE visible
03 Aug ? 23:44:44 51° NE 23:44:44 51° NE 23:48:08 10° NNE visible
04 Aug ? 01:24:05 12° WNW 01:26:07 15° NW 01:28:43 10° N visible
04 Aug ? 22:55:38 29° E 22:55:38 29° E 22:58:32 10° NE visible
